Year,Month,Day,Hour,Minute,Value (Times are PST for temperature in C)
2018,06,17,00,00,13.40
2018,06,17,00,01,13.40
2018,06,17,00,02,13.40
2018,06,17,00,03,13.40
2018,06,17,00,04,13.40
2018,06,17,00,05,13.40
2018,06,17,00,06,13.40
2018,06,17,00,07,13.40
2018,06,17,00,08,13.40
2018,06,17,00,09,13.40
2018,06,17,00,10,13.40
2018,06,17,00,11,13.30
2018,06,17,00,12,13.30
2018,06,17,00,13,13.30
2018,06,17,00,14,13.30
2018,06,17,00,15,13.30
2018,06,17,00,16,13.30
2018,06,17,00,17,13.30
2018,06,17,00,18,13.30
2018,06,17,00,19,13.30
2018,06,17,00,20,13.30
2018,06,17,00,21,13.30
2018,06,17,00,22,13.30
2018,06,17,00,23,13.30
2018,06,17,00,24,13.30
2018,06,17,00,25,13.20
2018,06,17,00,26,13.20
2018,06,17,00,27,13.20
2018,06,17,00,28,13.20
2018,06,17,00,29,13.20
2018,06,17,00,30,13.20
2018,06,17,00,31,13.20
2018,06,17,00,32,13.20
2018,06,17,00,33,13.10
2018,06,17,00,34,13.10
2018,06,17,00,35,13.10
2018,06,17,00,36,13.10
2018,06,17,00,37,13.10
2018,06,17,00,38,13.10
2018,06,17,00,39,13.10
2018,06,17,00,40,13.10
2018,06,17,00,41,13.10
2018,06,17,00,42,13.10
2018,06,17,00,43,13.20
2018,06,17,00,44,13.20
2018,06,17,00,45,13.20
2018,06,17,00,46,13.30
2018,06,17,00,47,13.30
2018,06,17,00,48,13.30
2018,06,17,00,49,13.30
2018,06,17,00,50,13.30
2018,06,17,00,51,13.30
2018,06,17,00,52,13.30
2018,06,17,00,53,13.30
2018,06,17,00,54,13.30
2018,06,17,00,55,13.30
2018,06,17,00,56,13.20
2018,06,17,00,57,13.20
2018,06,17,00,58,13.20
2018,06,17,00,59,13.20
2018,06,17,01,00,13.20
2018,06,17,01,01,13.30
2018,06,17,01,02,13.30
2018,06,17,01,03,13.30
2018,06,17,01,04,13.30
2018,06,17,01,05,13.30
2018,06,17,01,06,13.30
2018,06,17,01,07,13.30
2018,06,17,01,08,13.30
2018,06,17,01,09,13.40
2018,06,17,01,10,13.40
2018,06,17,01,11,13.40
2018,06,17,01,12,13.40
2018,06,17,01,13,13.40
2018,06,17,01,14,13.40
2018,06,17,01,15,13.40
2018,06,17,01,16,13.40
2018,06,17,01,17,13.40
2018,06,17,01,18,13.40
2018,06,17,01,19,13.40
2018,06,17,01,20,13.50
2018,06,17,01,21,13.50
2018,06,17,01,22,13.60
2018,06,17,01,23,13.50
2018,06,17,01,24,13.50
2018,06,17,01,25,13.50
2018,06,17,01,26,13.40
2018,06,17,01,27,13.40
2018,06,17,01,28,13.30
2018,06,17,01,29,13.30
2018,06,17,01,30,13.30
2018,06,17,01,31,13.20
2018,06,17,01,32,13.20
2018,06,17,01,33,13.20
2018,06,17,01,34,13.10
2018,06,17,01,35,13.10
2018,06,17,01,36,13.10
2018,06,17,01,37,13.00
2018,06,17,01,38,13.00
2018,06,17,01,39,13.00
2018,06,17,01,40,12.90
2018,06,17,01,41,12.90
2018,06,17,01,42,12.90
2018,06,17,01,43,12.80
2018,06,17,01,44,12.80
2018,06,17,01,45,12.70
2018,06,17,01,46,12.70
2018,06,17,01,47,12.70
2018,06,17,01,48,12.60
2018,06,17,01,49,12.60
2018,06,17,01,50,12.60
2018,06,17,01,51,12.50
2018,06,17,01,52,12.50
2018,06,17,01,53,12.50
2018,06,17,01,54,12.50
2018,06,17,01,55,12.50
2018,06,17,01,56,12.50
2018,06,17,01,57,12.50
2018,06,17,01,58,12.50
2018,06,17,01,59,12.50
2018,06,17,02,00,12.50
2018,06,17,02,01,12.50
2018,06,17,02,02,12.50
2018,06,17,02,03,12.50
2018,06,17,02,04,12.50
2018,06,17,02,05,12.40
2018,06,17,02,06,12.40
2018,06,17,02,07,12.40
2018,06,17,02,08,12.40
2018,06,17,02,09,12.30
2018,06,17,02,10,12.30
2018,06,17,02,11,12.30
2018,06,17,02,12,12.30
2018,06,17,02,13,12.30
2018,06,17,02,14,12.20
2018,06,17,02,15,12.20
2018,06,17,02,16,12.20
2018,06,17,02,17,12.20
2018,06,17,02,18,12.20
2018,06,17,02,19,12.20
2018,06,17,02,20,12.20
2018,06,17,02,21,12.20
2018,06,17,02,22,12.20
2018,06,17,02,23,12.20
2018,06,17,02,24,12.20
2018,06,17,02,25,12.20
2018,06,17,02,26,12.20
2018,06,17,02,27,12.20
2018,06,17,02,28,12.20
2018,06,17,02,29,12.20
2018,06,17,02,30,12.20
2018,06,17,02,31,12.30
2018,06,17,02,32,12.30
2018,06,17,02,33,12.30
2018,06,17,02,34,12.30
2018,06,17,02,35,12.30
2018,06,17,02,36,12.30
2018,06,17,02,37,12.40
2018,06,17,02,38,12.40
2018,06,17,02,39,12.40
2018,06,17,02,40,12.40
2018,06,17,02,41,12.50
2018,06,17,02,42,12.60
2018,06,17,02,43,12.70
2018,06,17,02,44,12.70
2018,06,17,02,45,12.80
2018,06,17,02,46,12.80
2018,06,17,02,47,12.80
2018,06,17,02,48,12.80
2018,06,17,02,49,12.80
2018,06,17,02,50,12.80
2018,06,17,02,51,12.80
2018,06,17,02,52,12.90
2018,06,17,02,53,12.90
2018,06,17,02,54,12.90
2018,06,17,02,55,12.90
2018,06,17,02,56,12.90
2018,06,17,02,57,12.90
2018,06,17,02,58,12.90
2018,06,17,02,59,12.90
2018,06,17,03,00,12.90
2018,06,17,03,01,12.80
2018,06,17,03,02,12.80
2018,06,17,03,03,12.80
2018,06,17,03,04,12.80
2018,06,17,03,05,12.80
2018,06,17,03,06,12.70
2018,06,17,03,07,12.70
2018,06,17,03,08,12.60
2018,06,17,03,09,12.60
2018,06,17,03,10,12.50
2018,06,17,03,11,12.40
2018,06,17,03,12,12.40
2018,06,17,03,13,12.40
2018,06,17,03,14,12.40
2018,06,17,03,15,12.40
2018,06,17,03,16,12.40
2018,06,17,03,17,12.40
2018,06,17,03,18,12.40
2018,06,17,03,19,12.40
2018,06,17,03,20,12.40
2018,06,17,03,21,12.30
2018,06,17,03,22,12.30
2018,06,17,03,23,12.30
2018,06,17,03,24,12.30
2018,06,17,03,25,12.20
2018,06,17,03,26,12.20
2018,06,17,03,27,12.20
2018,06,17,03,28,12.10
2018,06,17,03,29,12.10
2018,06,17,03,30,12.00
2018,06,17,03,31,11.90
2018,06,17,03,32,11.90
2018,06,17,03,33,11.80
2018,06,17,03,34,11.80
2018,06,17,03,35,11.70
2018,06,17,03,36,11.70
2018,06,17,03,37,11.60
2018,06,17,03,38,11.60
2018,06,17,03,39,11.60
2018,06,17,03,40,11.60
2018,06,17,03,41,11.60
2018,06,17,03,42,11.50
2018,06,17,03,43,11.50
2018,06,17,03,44,11.60
2018,06,17,03,45,11.60
2018,06,17,03,46,11.70
2018,06,17,03,47,11.70
2018,06,17,03,48,11.70
2018,06,17,03,49,11.70
2018,06,17,03,50,11.70
2018,06,17,03,51,11.70
2018,06,17,03,52,11.70
2018,06,17,03,53,11.70
2018,06,17,03,54,11.70
2018,06,17,03,55,11.60
2018,06,17,03,56,11.60
2018,06,17,03,57,11.60
2018,06,17,03,58,11.60
2018,06,17,03,59,11.50
2018,06,17,04,00,11.50
2018,06,17,04,01,11.40
2018,06,17,04,02,11.40
2018,06,17,04,03,11.40
2018,06,17,04,04,11.50
2018,06,17,04,05,11.50
2018,06,17,04,06,11.50
2018,06,17,04,07,11.60
2018,06,17,04,08,11.70
2018,06,17,04,09,11.70
2018,06,17,04,10,11.80
2018,06,17,04,11,11.80
2018,06,17,04,12,11.80
2018,06,17,04,13,11.80
2018,06,17,04,14,11.90
2018,06,17,04,15,12.00
2018,06,17,04,16,12.10
2018,06,17,04,17,12.20
2018,06,17,04,18,12.20
2018,06,17,04,19,12.20
2018,06,17,04,20,12.20
2018,06,17,04,21,12.20
2018,06,17,04,22,12.20
2018,06,17,04,23,12.20
2018,06,17,04,24,12.30
2018,06,17,04,25,12.30
2018,06,17,04,26,12.40
2018,06,17,04,27,12.40
2018,06,17,04,28,12.40
2018,06,17,04,29,12.40
2018,06,17,04,30,12.40
2018,06,17,04,31,12.30
2018,06,17,04,32,12.30
2018,06,17,04,33,12.30
2018,06,17,04,34,12.20
2018,06,17,04,35,12.20
2018,06,17,04,36,12.20
2018,06,17,04,37,12.20
2018,06,17,04,38,12.20
2018,06,17,04,39,12.10
2018,06,17,04,40,12.20
2018,06,17,04,41,12.10
2018,06,17,04,42,12.10
2018,06,17,04,43,12.10
2018,06,17,04,44,12.10
2018,06,17,04,45,12.10
2018,06,17,04,46,12.10
2018,06,17,04,47,12.10
2018,06,17,04,48,12.10
2018,06,17,04,49,12.10
2018,06,17,04,50,12.10
2018,06,17,04,51,12.10
2018,06,17,04,52,12.20
2018,06,17,04,53,12.20
2018,06,17,04,54,12.30
2018,06,17,04,55,12.30
2018,06,17,04,56,12.30
2018,06,17,04,57,12.30
2018,06,17,04,58,12.30
2018,06,17,04,59,12.30
2018,06,17,05,00,12.30
2018,06,17,05,01,12.30
2018,06,17,05,02,12.20
2018,06,17,05,03,12.20
2018,06,17,05,04,12.20
2018,06,17,05,05,12.20
2018,06,17,05,06,12.20
2018,06,17,05,07,12.20
2018,06,17,05,08,12.20
2018,06,17,05,09,12.20
2018,06,17,05,10,12.20
2018,06,17,05,11,12.20
2018,06,17,05,12,12.10
2018,06,17,05,13,12.10
2018,06,17,05,14,12.10
2018,06,17,05,15,12.10
2018,06,17,05,16,12.10
2018,06,17,05,17,12.10
2018,06,17,05,18,12.10
2018,06,17,05,19,12.00
2018,06,17,05,20,12.00
2018,06,17,05,21,12.00
2018,06,17,05,22,12.00
2018,06,17,05,23,12.00
2018,06,17,05,24,12.00
2018,06,17,05,25,12.00
2018,06,17,05,26,12.00
2018,06,17,05,27,11.90
2018,06,17,05,28,11.90
2018,06,17,05,29,11.90
2018,06,17,05,30,11.90
2018,06,17,05,31,11.80
2018,06,17,05,32,11.80
2018,06,17,05,33,11.80
2018,06,17,05,34,11.80
2018,06,17,05,35,11.70
2018,06,17,05,36,11.70
2018,06,17,05,37,11.70
2018,06,17,05,38,11.70
2018,06,17,05,39,11.60
2018,06,17,05,40,11.60
2018,06,17,05,41,11.60
2018,06,17,05,42,11.60
2018,06,17,05,43,11.60
2018,06,17,05,44,11.60
2018,06,17,05,45,11.60
2018,06,17,05,46,11.60
2018,06,17,05,47,11.60
2018,06,17,05,48,11.60
2018,06,17,05,49,11.60
2018,06,17,05,50,11.60
2018,06,17,05,51,11.60
2018,06,17,05,52,11.60
2018,06,17,05,53,11.60
2018,06,17,05,54,11.60
2018,06,17,05,55,11.60
2018,06,17,05,56,11.60
2018,06,17,05,57,11.70
2018,06,17,05,58,11.70
2018,06,17,05,59,11.80
2018,06,17,06,00,11.90
2018,06,17,06,01,11.90
2018,06,17,06,02,12.00
2018,06,17,06,03,12.10
2018,06,17,06,04,12.20
2018,06,17,06,05,12.20
2018,06,17,06,06,12.20
2018,06,17,06,07,12.30
2018,06,17,06,08,12.30
2018,06,17,06,09,12.50
2018,06,17,06,10,12.60
2018,06,17,06,11,12.70
2018,06,17,06,12,12.80
2018,06,17,06,13,12.80
2018,06,17,06,14,12.90
2018,06,17,06,15,12.90
2018,06,17,06,16,12.90
2018,06,17,06,17,13.00
2018,06,17,06,18,13.10
2018,06,17,06,19,13.10
2018,06,17,06,20,13.10
2018,06,17,06,21,13.20
2018,06,17,06,22,13.20
2018,06,17,06,23,13.20
2018,06,17,06,24,13.30
2018,06,17,06,25,13.30
2018,06,17,06,26,13.40
2018,06,17,06,27,13.50
2018,06,17,06,28,13.60
2018,06,17,06,29,13.60
2018,06,17,06,30,13.70
2018,06,17,06,31,13.80
2018,06,17,06,32,13.80
2018,06,17,06,33,13.80
2018,06,17,06,34,13.90
2018,06,17,06,35,14.00
2018,06,17,06,36,14.00
2018,06,17,06,37,14.10
2018,06,17,06,38,14.20
2018,06,17,06,39,14.20
2018,06,17,06,40,14.30
2018,06,17,06,41,14.30
2018,06,17,06,42,14.30
2018,06,17,06,43,14.30
2018,06,17,06,44,14.20
2018,06,17,06,45,14.20
2018,06,17,06,46,14.10
2018,06,17,06,47,14.10
2018,06,17,06,48,14.10
2018,06,17,06,49,14.10
2018,06,17,06,50,14.10
2018,06,17,06,51,14.10
2018,06,17,06,52,14.00
2018,06,17,06,53,14.00
2018,06,17,06,54,14.00
2018,06,17,06,55,14.00
2018,06,17,06,56,14.00
2018,06,17,06,57,14.00
2018,06,17,06,58,14.10
2018,06,17,06,59,14.10
2018,06,17,07,00,14.10
2018,06,17,07,01,14.20
2018,06,17,07,02,14.40
2018,06,17,07,03,14.50
2018,06,17,07,04,14.70
2018,06,17,07,05,14.80
2018,06,17,07,06,15.00
2018,06,17,07,07,15.20
2018,06,17,07,08,15.30
2018,06,17,07,09,15.40
2018,06,17,07,10,15.50
2018,06,17,07,11,15.60
2018,06,17,07,12,15.60
2018,06,17,07,13,15.70
2018,06,17,07,14,15.80
2018,06,17,07,15,15.80
2018,06,17,07,16,15.90
2018,06,17,07,17,15.90
2018,06,17,07,18,15.90
2018,06,17,07,19,15.90
2018,06,17,07,20,15.90
2018,06,17,07,21,15.90
2018,06,17,07,22,15.90
2018,06,17,07,23,16.00
2018,06,17,07,24,16.10
2018,06,17,07,25,16.20
2018,06,17,07,26,16.30
2018,06,17,07,27,16.40
2018,06,17,07,28,16.50
2018,06,17,07,29,16.60
2018,06,17,07,30,16.70
2018,06,17,07,31,16.80
2018,06,17,07,32,16.90
2018,06,17,07,33,17.00
2018,06,17,07,34,17.10
2018,06,17,07,35,17.20
2018,06,17,07,36,17.30
2018,06,17,07,37,17.40
2018,06,17,07,38,17.50
2018,06,17,07,39,17.50
2018,06,17,07,40,17.60
2018,06,17,07,41,17.70
2018,06,17,07,42,17.80
2018,06,17,07,43,17.90
2018,06,17,07,44,18.00
2018,06,17,07,45,18.00
2018,06,17,07,46,18.10
2018,06,17,07,47,18.20
2018,06,17,07,48,18.30
2018,06,17,07,49,18.40
2018,06,17,07,50,18.50
2018,06,17,07,51,18.60
2018,06,17,07,52,18.60
2018,06,17,07,53,18.60
2018,06,17,07,54,18.70
2018,06,17,07,55,18.70
2018,06,17,07,56,18.70
2018,06,17,07,57,18.80
2018,06,17,07,58,18.80
2018,06,17,07,59,18.80
2018,06,17,08,00,18.90
2018,06,17,08,01,18.90
2018,06,17,08,02,19.00
2018,06,17,08,03,19.10
2018,06,17,08,04,19.10
2018,06,17,08,05,19.10
2018,06,17,08,06,19.10
2018,06,17,08,07,19.20
2018,06,17,08,08,19.20
2018,06,17,08,09,19.20
2018,06,17,08,10,19.30
2018,06,17,08,11,19.40
2018,06,17,08,12,19.50
2018,06,17,08,13,19.70
2018,06,17,08,14,19.80
2018,06,17,08,15,19.90
2018,06,17,08,16,20.00
2018,06,17,08,17,20.10
2018,06,17,08,18,20.10
2018,06,17,08,19,20.20
2018,06,17,08,20,20.20
2018,06,17,08,21,20.30
2018,06,17,08,22,20.30
2018,06,17,08,23,20.30
2018,06,17,08,24,20.40
2018,06,17,08,25,20.40
2018,06,17,08,26,20.30
2018,06,17,08,27,20.40
2018,06,17,08,28,20.40
2018,06,17,08,29,20.40
2018,06,17,08,30,20.40
2018,06,17,08,31,20.40
2018,06,17,08,32,20.40
2018,06,17,08,33,20.50
2018,06,17,08,34,20.50
2018,06,17,08,35,20.50
2018,06,17,08,36,20.40
2018,06,17,08,37,20.40
2018,06,17,08,38,20.40
2018,06,17,08,39,20.30
2018,06,17,08,40,20.20
2018,06,17,08,41,20.20
2018,06,17,08,42,20.20
2018,06,17,08,43,20.20
2018,06,17,08,44,20.20
2018,06,17,08,45,20.30
2018,06,17,08,46,20.40
2018,06,17,08,47,20.50
2018,06,17,08,48,20.60
2018,06,17,08,49,20.70
2018,06,17,08,50,20.70
2018,06,17,08,51,20.80
2018,06,17,08,52,20.90
2018,06,17,08,53,21.00
2018,06,17,08,54,21.10
2018,06,17,08,55,21.20
2018,06,17,08,56,21.30
2018,06,17,08,57,21.40
2018,06,17,08,58,21.50
2018,06,17,08,59,21.60
2018,06,17,09,00,21.60
2018,06,17,09,01,21.70
2018,06,17,09,02,21.60
2018,06,17,09,03,21.70
2018,06,17,09,04,21.70
2018,06,17,09,05,21.70
2018,06,17,09,06,21.70
2018,06,17,09,07,21.80
2018,06,17,09,08,21.90
2018,06,17,09,09,22.00
2018,06,17,09,10,22.10
2018,06,17,09,11,22.20
2018,06,17,09,12,22.40
2018,06,17,09,13,22.50
2018,06,17,09,14,22.70
2018,06,17,09,15,22.80
2018,06,17,09,16,22.80
2018,06,17,09,17,23.00
2018,06,17,09,18,23.10
2018,06,17,09,19,23.20
2018,06,17,09,20,23.30
2018,06,17,09,21,23.30
2018,06,17,09,22,23.40
2018,06,17,09,23,23.40
2018,06,17,09,24,23.40
2018,06,17,09,25,23.40
2018,06,17,09,26,23.40
2018,06,17,09,27,23.30
2018,06,17,09,28,23.30
2018,06,17,09,29,23.20
2018,06,17,09,30,23.10
2018,06,17,09,31,23.00
2018,06,17,09,32,22.90
2018,06,17,09,33,22.80
2018,06,17,09,34,22.70
2018,06,17,09,35,22.70
2018,06,17,09,36,22.80
2018,06,17,09,37,22.90
2018,06,17,09,38,22.80
2018,06,17,09,39,22.90
2018,06,17,09,40,23.00
2018,06,17,09,41,23.10
2018,06,17,09,42,23.10
2018,06,17,09,43,23.10
2018,06,17,09,44,23.10
2018,06,17,09,45,23.00
2018,06,17,09,46,23.00
2018,06,17,09,47,23.10
2018,06,17,09,48,23.00
2018,06,17,09,49,22.90
2018,06,17,09,50,22.70
2018,06,17,09,51,22.70
2018,06,17,09,52,22.60
2018,06,17,09,53,22.60
2018,06,17,09,54,22.70
2018,06,17,09,55,22.70
2018,06,17,09,56,22.70
2018,06,17,09,57,22.70
2018,06,17,09,58,22.60
2018,06,17,09,59,22.60
2018,06,17,10,00,22.60
2018,06,17,10,01,22.70
2018,06,17,10,02,22.70
2018,06,17,10,03,22.80
2018,06,17,10,04,22.80
2018,06,17,10,05,22.80
2018,06,17,10,06,22.80
2018,06,17,10,07,22.90
2018,06,17,10,08,22.90
2018,06,17,10,09,22.90
2018,06,17,10,10,22.90
2018,06,17,10,11,22.90
2018,06,17,10,12,22.90
2018,06,17,10,13,22.80
2018,06,17,10,14,22.80
2018,06,17,10,15,22.90
2018,06,17,10,16,23.00
2018,06,17,10,17,23.00
2018,06,17,10,18,23.20
2018,06,17,10,19,23.30
2018,06,17,10,20,23.30
2018,06,17,10,21,23.30
2018,06,17,10,22,23.30
2018,06,17,10,23,23.40
2018,06,17,10,24,23.50
2018,06,17,10,25,23.60
2018,06,17,10,26,23.60
2018,06,17,10,27,23.60
2018,06,17,10,28,23.70
2018,06,17,10,29,23.70
2018,06,17,10,30,23.70
2018,06,17,10,31,23.80
2018,06,17,10,32,23.80
2018,06,17,10,33,23.90
2018,06,17,10,34,23.90
2018,06,17,10,35,24.00
2018,06,17,10,36,24.10
2018,06,17,10,37,24.20
2018,06,17,10,38,24.30
2018,06,17,10,39,24.30
2018,06,17,10,40,24.40
2018,06,17,10,41,24.30
2018,06,17,10,42,24.40
2018,06,17,10,43,24.40
2018,06,17,10,44,24.40
2018,06,17,10,45,24.50
2018,06,17,10,46,24.40
2018,06,17,10,47,24.40
2018,06,17,10,48,24.50
2018,06,17,10,49,24.60
2018,06,17,10,50,24.70
2018,06,17,10,51,24.80
2018,06,17,10,52,24.80
2018,06,17,10,53,24.90
2018,06,17,10,54,25.00
2018,06,17,10,55,25.00
2018,06,17,10,56,25.00
2018,06,17,10,57,25.10
2018,06,17,10,58,25.20
2018,06,17,10,59,25.30
2018,06,17,11,00,25.30
2018,06,17,11,01,25.20
2018,06,17,11,02,25.20
2018,06,17,11,03,25.10
2018,06,17,11,04,25.10
2018,06,17,11,05,25.10
2018,06,17,11,06,25.10
2018,06,17,11,07,25.00
2018,06,17,11,08,24.90
2018,06,17,11,09,24.80
2018,06,17,11,10,24.90
2018,06,17,11,11,24.90
2018,06,17,11,12,24.90
2018,06,17,11,13,25.00
2018,06,17,11,14,24.90
2018,06,17,11,15,24.90
2018,06,17,11,16,24.80
2018,06,17,11,17,24.80
2018,06,17,11,18,24.80
2018,06,17,11,19,24.80
2018,06,17,11,20,24.80
2018,06,17,11,21,24.70
2018,06,17,11,22,24.60
2018,06,17,11,23,24.50
2018,06,17,11,24,24.40
2018,06,17,11,25,24.40
2018,06,17,11,26,24.40
2018,06,17,11,27,24.50
2018,06,17,11,28,24.60
2018,06,17,11,29,24.70
2018,06,17,11,30,24.70
2018,06,17,11,31,24.60
2018,06,17,11,32,24.60
2018,06,17,11,33,24.50
2018,06,17,11,34,24.50
2018,06,17,11,35,24.50
2018,06,17,11,36,24.70
2018,06,17,11,37,24.80
2018,06,17,11,38,24.90
2018,06,17,11,39,25.00
2018,06,17,11,40,25.10
2018,06,17,11,41,25.20
2018,06,17,11,42,25.20
2018,06,17,11,43,25.30
2018,06,17,11,44,25.40
2018,06,17,11,45,25.60
2018,06,17,11,46,25.80
2018,06,17,11,47,25.90
2018,06,17,11,48,25.90
2018,06,17,11,49,25.80
2018,06,17,11,50,25.60
2018,06,17,11,51,25.40
2018,06,17,11,52,25.30
2018,06,17,11,53,25.30
2018,06,17,11,54,25.30
2018,06,17,11,55,25.40
2018,06,17,11,56,25.50
2018,06,17,11,57,25.60
2018,06,17,11,58,25.80
2018,06,17,11,59,25.80
2018,06,17,12,00,25.80
2018,06,17,12,01,25.80
2018,06,17,12,02,25.90
2018,06,17,12,03,25.90
2018,06,17,12,04,25.90
2018,06,17,12,05,25.90
2018,06,17,12,06,25.90
2018,06,17,12,07,25.90
2018,06,17,12,08,26.00
2018,06,17,12,09,26.10
2018,06,17,12,10,26.10
2018,06,17,12,11,26.10
2018,06,17,12,12,26.20
2018,06,17,12,13,26.30
2018,06,17,12,14,26.40
2018,06,17,12,15,26.50
2018,06,17,12,16,26.50
2018,06,17,12,17,26.60
2018,06,17,12,18,26.70
2018,06,17,12,19,26.70
2018,06,17,12,20,26.80
2018,06,17,12,21,26.90
2018,06,17,12,22,26.90
2018,06,17,12,23,26.90
2018,06,17,12,24,27.00
2018,06,17,12,25,27.10
2018,06,17,12,26,27.10
2018,06,17,12,27,27.10
2018,06,17,12,28,26.90
2018,06,17,12,29,26.70
2018,06,17,12,30,26.60
2018,06,17,12,31,26.40
2018,06,17,12,32,26.40
2018,06,17,12,33,26.30
2018,06,17,12,34,26.30
2018,06,17,12,35,26.20
2018,06,17,12,36,26.20
2018,06,17,12,37,26.20
2018,06,17,12,38,26.20
2018,06,17,12,39,26.10
2018,06,17,12,40,26.10
2018,06,17,12,41,26.10
2018,06,17,12,42,26.10
2018,06,17,12,43,26.00
2018,06,17,12,44,26.00
2018,06,17,12,45,25.90
2018,06,17,12,46,25.90
2018,06,17,12,47,26.00
2018,06,17,12,48,26.00
2018,06,17,12,49,26.10
2018,06,17,12,50,26.10
2018,06,17,12,51,26.10
2018,06,17,12,52,26.10
2018,06,17,12,53,26.10
2018,06,17,12,54,26.10
2018,06,17,12,55,26.10
2018,06,17,12,56,26.10
2018,06,17,12,57,26.10
2018,06,17,12,58,26.20
2018,06,17,12,59,26.30
2018,06,17,13,00,26.30
2018,06,17,13,01,26.40
2018,06,17,13,02,26.50
2018,06,17,13,03,26.60
2018,06,17,13,04,26.80
2018,06,17,13,05,26.90
2018,06,17,13,06,27.00
2018,06,17,13,07,27.00
2018,06,17,13,08,27.00
2018,06,17,13,09,27.10
2018,06,17,13,10,27.20
2018,06,17,13,11,27.10
2018,06,17,13,12,27.00
2018,06,17,13,13,26.90
2018,06,17,13,14,26.80
2018,06,17,13,15,26.80
2018,06,17,13,16,26.80
2018,06,17,13,17,26.80
2018,06,17,13,18,26.80
2018,06,17,13,19,26.80
2018,06,17,13,20,26.90
2018,06,17,13,21,26.90
2018,06,17,13,22,27.00
2018,06,17,13,23,26.90
2018,06,17,13,24,26.90
2018,06,17,13,25,26.80
2018,06,17,13,26,26.70
2018,06,17,13,27,26.70
2018,06,17,13,28,26.70
2018,06,17,13,29,26.60
2018,06,17,13,30,26.50
2018,06,17,13,31,26.40
2018,06,17,13,32,26.50
2018,06,17,13,33,26.60
2018,06,17,13,34,26.70
2018,06,17,13,35,26.70
2018,06,17,13,36,26.80
2018,06,17,13,37,26.70
2018,06,17,13,38,26.70
2018,06,17,13,39,26.80
2018,06,17,13,40,26.80
2018,06,17,13,41,26.80
2018,06,17,13,42,26.80
2018,06,17,13,43,26.70
2018,06,17,13,44,26.70
2018,06,17,13,45,26.70
2018,06,17,13,46,26.60
2018,06,17,13,47,26.70
2018,06,17,13,48,26.70
2018,06,17,13,49,26.70
2018,06,17,13,50,26.70
2018,06,17,13,51,26.80
2018,06,17,13,52,26.80
2018,06,17,13,53,26.80
2018,06,17,13,54,26.80
2018,06,17,13,55,26.80
2018,06,17,13,56,26.80
2018,06,17,13,57,26.90
2018,06,17,13,58,27.00
2018,06,17,13,59,27.10
2018,06,17,14,00,27.10
2018,06,17,14,01,27.20
2018,06,17,14,02,27.20
2018,06,17,14,03,27.10
2018,06,17,14,04,27.10
2018,06,17,14,05,27.00
2018,06,17,14,06,27.00
2018,06,17,14,07,26.90
2018,06,17,14,08,27.00
2018,06,17,14,09,27.00
2018,06,17,14,10,27.10
2018,06,17,14,11,27.20
2018,06,17,14,12,27.30
2018,06,17,14,13,27.40
2018,06,17,14,14,27.60
2018,06,17,14,15,27.80
2018,06,17,14,16,27.80
2018,06,17,14,17,27.80
2018,06,17,14,18,27.80
2018,06,17,14,19,27.80
2018,06,17,14,20,27.90
2018,06,17,14,21,28.00
2018,06,17,14,22,28.10
2018,06,17,14,23,28.00
2018,06,17,14,24,27.90
2018,06,17,14,25,27.80
2018,06,17,14,26,27.80
2018,06,17,14,27,27.80
2018,06,17,14,28,27.90
2018,06,17,14,29,28.00
2018,06,17,14,30,28.10
2018,06,17,14,31,28.20
2018,06,17,14,32,28.20
2018,06,17,14,33,28.10
2018,06,17,14,34,28.10
2018,06,17,14,35,28.00
2018,06,17,14,36,28.00
2018,06,17,14,37,28.10
2018,06,17,14,38,28.20
2018,06,17,14,39,28.10
2018,06,17,14,40,28.00
2018,06,17,14,41,28.00
2018,06,17,14,42,28.00
2018,06,17,14,43,27.90
2018,06,17,14,44,27.90
2018,06,17,14,45,27.90
2018,06,17,14,46,27.80
2018,06,17,14,47,27.80
2018,06,17,14,48,27.80
2018,06,17,14,49,27.90
2018,06,17,14,50,27.80
2018,06,17,14,51,27.70
2018,06,17,14,52,27.70
2018,06,17,14,53,27.80
2018,06,17,14,54,27.80
2018,06,17,14,55,27.90
2018,06,17,14,56,27.90
2018,06,17,14,57,28.00
2018,06,17,14,58,28.20
2018,06,17,14,59,28.30
2018,06,17,15,00,28.30
2018,06,17,15,01,28.40
2018,06,17,15,02,28.40
2018,06,17,15,03,28.40
2018,06,17,15,04,28.40
2018,06,17,15,05,28.40
2018,06,17,15,06,28.40
2018,06,17,15,07,28.40
2018,06,17,15,08,28.30
2018,06,17,15,09,28.30
2018,06,17,15,10,28.30
2018,06,17,15,11,28.20
2018,06,17,15,12,28.10
2018,06,17,15,13,28.00
2018,06,17,15,14,27.90
2018,06,17,15,15,27.90
2018,06,17,15,16,27.80
2018,06,17,15,17,27.70
2018,06,17,15,18,27.50
2018,06,17,15,19,27.40
2018,06,17,15,20,27.30
2018,06,17,15,21,27.20
2018,06,17,15,22,27.10
2018,06,17,15,23,26.90
2018,06,17,15,24,26.90
2018,06,17,15,25,26.80
2018,06,17,15,26,26.80
2018,06,17,15,27,26.80
2018,06,17,15,28,26.90
2018,06,17,15,29,26.90
2018,06,17,15,30,26.80
2018,06,17,15,31,26.90
2018,06,17,15,32,26.80
2018,06,17,15,33,26.80
2018,06,17,15,34,26.80
2018,06,17,15,35,26.80
2018,06,17,15,36,26.80
2018,06,17,15,37,26.90
2018,06,17,15,38,26.90
2018,06,17,15,39,27.10
2018,06,17,15,40,27.20
2018,06,17,15,41,27.40
2018,06,17,15,42,27.40
2018,06,17,15,43,27.50
2018,06,17,15,44,27.60
2018,06,17,15,45,27.60
2018,06,17,15,46,27.50
2018,06,17,15,47,27.40
2018,06,17,15,48,27.30
2018,06,17,15,49,27.20
2018,06,17,15,50,27.20
2018,06,17,15,51,27.20
2018,06,17,15,52,27.10
2018,06,17,15,53,27.20
2018,06,17,15,54,27.20
2018,06,17,15,55,27.20
2018,06,17,15,56,27.20
2018,06,17,15,57,27.20
2018,06,17,15,58,27.30
2018,06,17,15,59,27.40
2018,06,17,16,00,27.50
2018,06,17,16,01,27.50
2018,06,17,16,02,27.50
2018,06,17,16,03,27.50
2018,06,17,16,04,27.50
2018,06,17,16,05,27.40
2018,06,17,16,06,27.40
2018,06,17,16,07,27.50
2018,06,17,16,08,27.50
2018,06,17,16,09,27.60
2018,06,17,16,10,27.50
2018,06,17,16,11,27.50
2018,06,17,16,12,27.50
2018,06,17,16,13,27.40
2018,06,17,16,14,27.20
2018,06,17,16,15,27.10
2018,06,17,16,16,26.90
2018,06,17,16,17,26.90
2018,06,17,16,18,26.90
2018,06,17,16,19,26.80
2018,06,17,16,20,26.80
2018,06,17,16,21,26.80
2018,06,17,16,22,26.70
2018,06,17,16,23,26.70
2018,06,17,16,24,26.70
2018,06,17,16,25,26.70
2018,06,17,16,26,26.80
2018,06,17,16,27,26.80
2018,06,17,16,28,26.80
2018,06,17,16,29,26.80
2018,06,17,16,30,26.70
2018,06,17,16,31,26.60
2018,06,17,16,32,26.50
2018,06,17,16,33,26.30
2018,06,17,16,34,26.10
2018,06,17,16,35,25.70
2018,06,17,16,36,25.30
2018,06,17,16,37,25.00
2018,06,17,16,38,24.70
2018,06,17,16,39,24.40
2018,06,17,16,40,24.10
2018,06,17,16,41,23.90
2018,06,17,16,42,23.80
2018,06,17,16,43,23.70
2018,06,17,16,44,23.70
2018,06,17,16,45,23.60
2018,06,17,16,46,23.60
2018,06,17,16,47,23.50
2018,06,17,16,48,23.50
2018,06,17,16,49,23.40
2018,06,17,16,50,23.40
2018,06,17,16,51,23.30
2018,06,17,16,52,23.30
2018,06,17,16,53,23.20
2018,06,17,16,54,23.00
2018,06,17,16,55,22.90
2018,06,17,16,56,22.70
2018,06,17,16,57,22.70
2018,06,17,16,58,22.60
2018,06,17,16,59,22.60
2018,06,17,17,00,22.50
2018,06,17,17,01,22.40
2018,06,17,17,02,22.30
2018,06,17,17,03,22.30
2018,06,17,17,04,22.20
2018,06,17,17,05,22.10
2018,06,17,17,06,21.90
2018,06,17,17,07,21.80
2018,06,17,17,08,21.60
2018,06,17,17,09,21.50
2018,06,17,17,10,21.40
2018,06,17,17,11,21.30
2018,06,17,17,12,21.30
2018,06,17,17,13,21.20
2018,06,17,17,14,21.20
2018,06,17,17,15,21.20
2018,06,17,17,16,21.20
2018,06,17,17,17,21.10
2018,06,17,17,18,21.20
2018,06,17,17,19,21.10